Weather Roundup
Issued by NWS

Home | Current Version | Previous Version | Text Only | Print | Product List | Glossary On
Versions: 1 2 3 4 5 6 7 8 9 10 11 12 13 14 15 16 17 18 19 20 21 22 23 24 25 26 27 28 29 30 31 32 33 34 35 36 37 38 39 40 41 42 43 44 45 46 47 48 49 50
924
NZUS93 KARX 190510
HRRWXR

CURRENT HOURLY OBSERVATIONS ACROSS
MUCH OF THE UPPER MISSISSIPPI VALLEY
NATIONAL WEATHER SERVICE LA CROSSE WI
1200 AM CDT THU OCT 19 2017


...SOUTHEAST MINNESOTA...


CITY           SKY/WX    TMP DP  RH WIND       PRES   REMARKS
ROCHESTER      CLEAR     49  30  48 NW10      30.04R
ROCHESTER/MAYO FAIR      52  27  37 W9        30.03S
WINONA         PTCLDY    55  30  38 W7        30.02R
AUSTIN         CLOUDY    48  30  49 NW5       30.04S
ALBERT LEA     NOT AVBL
DODGE CENTER   CLEAR     52  25  35 NW9       30.03F
PRESTON        CLOUDY    50  28  42 NW9       30.04R
OWATONNA       CLOUDY    43  32  65 W3        30.04S
FARIBAULT      CLOUDY    46  30  53 CALM      30.04S
$$

...ELSEWHERE IN MINNESOTA...


CITY           SKY/WX    TMP DP  RH WIND       PRES   REMARKS
MINNEAPOLIS    CLOUDY    54  29  38 W8        30.02R
INTNL FALLS    CLEAR     48  15  26 W14G20    29.76R
DULUTH         PTCLDY    46  20  35 W16       29.87R
RED WING       CLEAR     50  25  37 CALM      30.01S
REDWOOD FALLS  CLOUDY    48  29  47 W7        30.04S
MANKATO        PTCLDY    47  30  51 CALM      30.05R
WORTHINGTON    CLOUDY    42  34  73 W5        30.07S
FAIRMONT       CLOUDY    46  32  58 CALM      30.05F
$$

...SOUTHWEST WISCONSIN...


CITY           SKY/WX    TMP DP  RH WIND       PRES   REMARKS
LA CROSSE      CLOUDY    58  29  33 NW14      30.01R
PRAIRIE DU CHI CLOUDY    54  46  75 W5        30.00R
BOSCOBEL       CLEAR     53  48  83 W3        30.00R
LONE ROCK      PTCLDY    51  47  86 CALM      29.98R
PLATTEVILLE    CLEAR     54  48  81 W6        30.01S
FORT MC COY    CLOUDY    57  27  31 NW7       30.01R
CAMP DOUGLAS   PTCLDY    58  31  36 NW15G24   29.98R
MAUSTON-NEW LI PTCLDY    59  36  41 NW10      29.97R
VIROQUA        FAIR      55  36  48 NW9       30.00R
WIS DELLS      CLEAR     57  46  64 W7        29.97R
$$

...ELSEWHERE IN WISCONSIN...


CITY           SKY/WX    TMP DP  RH WIND       PRES   REMARKS
MILWAUKEE      PTCLDY    60  44  55 SW14      29.97F
MADISON        CLEAR     60  46  59 SW9       29.97S
GREEN BAY      PTCLDY    60  48  64 W12       29.89R
EAU CLAIRE     CLOUDY    51  25  36 W9        29.98R
BLACK RVR FLS  FAIR      56  18  22 W10G16    29.99R
MEDFORD        CLOUDY    51  24  35 W13G22    29.94R
WAUSAU         CLOUDY    54  26  34 W15       29.92R
WIS RAPIDS     CLOUDY    57  31  37 NW12      29.97R
MARSHFIELD     CLOUDY    52  25  35 W10       29.95R
RICE LAKE      CLOUDY    49  26  40 CALM      29.98S
$$

...NORTHEAST IOWA...


CITY           SKY/WX    TMP DP  RH WIND       PRES   REMARKS
WATERLOO       CLEAR     49  47  93 NW3       30.02R
DUBUQUE        CLOUDY    51  46  83 SW7       30.01S
DECORAH        PTCLDY    55  37  50 NW9G16    30.02R
MASON CITY     PTCLDY    43  33  68 CALM      30.06R
CHARLES CITY   CLEAR     52  36  54 N8        30.04R
OELWEIN        CLOUDY    54  50  87 W6        30.03R
$$

...ELSEWHERE IN IOWA...


CITY           SKY/WX    TMP DP  RH WIND       PRES   REMARKS
DES MOINES     CLOUDY    57  48  72 W3        30.03S
IOWA CITY      CLEAR     52  47  83 CALM      30.04S
FORT DODGE     CLEAR     45  42  89 CALM      30.05S
MARSHALLTOWN   CLEAR     51  48  89 NW6       30.02R
CEDAR RAPIDS   CLEAR     54  47  77 S5        30.01S
$$

...NORTHERN ILLINOIS...


CITY           SKY/WX    TMP DP  RH WIND       PRES   REMARKS
CHICAGO-OHARE  PTCLDY    61  44  53 SW14G20   30.03F
CHICAGO-MIDWAY CLEAR     59  46  62 SW10      30.05F
MOLINE         CLEAR     58  43  57 SW3       30.03F
ROCKFORD       CLEAR     54  43  66 S7        30.04F
PEORIA         CLEAR     53  46  77 S7        30.08F
$$

NOTE: "FAIR" INDICATES FEW OR NO CLOUDS BELOW 12,000 FEET WITH NO
SIGNIFICANT WEATHER AND/OR OBSTRUCTIONS TO VISIBILITY. WIND
SPEEDS ARE IN MILES-PER-HOUR.




USA.gov is the U.S. government's official web portal to all federal, state and local government web resources and services.